Location: Knowlton
(51.2333°N, 1.2667°E)
Time: 23:28:26
(UTC+00:00)

ZACube-1 - Pass Details

Date: 06 December 2021
Orbit: 582 x 665 km, 97.6° (Epoch: 21 January)

Event Time Altitude Azimuth Distance (km) Brightness Sun altitude
Rises 05:07:50 0° 8° (N) 3,002 ? -23.2°
Reaches altitude 10° 05:10:08 10° 2° (N) 2,092 ? -22.9°
Enters shadow 05:11:14 17° 356° (N) 1,686 ? -22.7°
